Change the Weather History Date:

Saturday, January 24, 2015

  Actual Average Record
Temperature  
Mean Temperature 55 °F 43 °F  
Max Temperature 58 °F 48 °F 58 °F (1995)
Min Temperature 52 °F 37 °F 10 °F (1950)
Degree Days  
Heating Degree Days 10 22  
Month to date heating degree days 490 556  
Since 1 July heating degree days 1933 2494  
Cooling Degree Days 0 0  
Month to date cooling degree days 0 0  
Year to date cooling degree days 0 0  
Growing Degree Days 2 (Base 50)    
Moisture  
Dew Point 53 °F    
Average Humidity 90    
Maximum Humidity 93    
Minimum Humidity 86    
Precipitation  
Precipitation 0.02 in 0.16 in 1.36 in (1984)
Month to date precipitation 3.63 4.45  
Year to date precipitation 3.63 4.45  
Snow  
Snow 0.00 in - 3.50 in (1972)
Month to date snowfall 0.0  
Since 1 July snowfall 0.8  
Snow Depth 0.00 in    
Sea Level Pressure  
Sea Level Pressure 30.29 in    
Wind  
Wind Speed 7 mph (SSW)    
Max Wind Speed 16 mph    
Max Gust Speed 21 mph    
Visibility 9 miles    
Events Rain    
T = Trace of Precipitation, MM = Missing Value Source: NWS Daily Summary

Daily Weather History Graph

Daily Weather History Graph

Search for Another Location

Airport or City:

Trip Planner

Search our weather history database for the weather conditions in past years. The results will help you decide how hot, cold, wet, or windy it might be!

Date:

Astronomy

Jan. 24, 2015 Rise Set
Actual Time 7:44 AM PST 4:58 PM PST
Civil Twilight 7:11 AM PST 5:32 PM PST
Nautical Twilight 6:33 AM PST 6:09 PM PST
Astronomical Twilight 5:57 AM PST 6:46 PM PST
Moon 9:55 AM PST (1/24) 10:47 PM PST (1/24)
Length of Visible Light 10h 21m
Length of Day
9h 13m
Waxing Crescent, 24% of the Moon is Illuminated
Jan 24
Waxing Crescent
Jan 26
First Quarter
Feb 3
Full
Feb 11
Last Quarter
Feb 18
New

Hourly Weather History & Observations

Time (PST) Temp. Dew Point Humidity Pressure Visibility Wind Dir Wind Speed Gust Speed Precip Events Conditions
12:26 AM 53.6 °F 51.8 °F 94% 30.30 in 8.0 mi SSW 12.7 mph - 0.00 in Rain Light Rain
12:53 AM 53.1 °F 51.1 °F 93% 30.33 in 10.0 mi SW 9.2 mph - 0.00 in   Overcast
1:11 AM 53.6 °F 51.8 °F 94% 30.31 in 0.5 mi SSW 12.7 mph - N/A   Overcast
1:25 AM 53.6 °F 51.8 °F 94% 30.32 in 0.5 mi SSW 12.7 mph - 0.00 in Rain Light Rain
1:44 AM 53.6 °F 51.8 °F 94% 30.31 in 0.5 mi SSW 8.1 mph - 0.01 in   Overcast
1:53 AM 53.1 °F 52.0 °F 96% 30.33 in 0.5 mi South 5.8 mph - 0.01 in   Overcast
2:11 AM 53.6 °F 51.8 °F 94% 30.32 in 6.0 mi SSE 4.6 mph - N/A   Overcast
2:35 AM 53.6 °F 53.6 °F 100% 30.32 in 6.0 mi SSW 10.4 mph - 0.00 in Rain Light Rain
2:53 AM 54.0 °F 53.1 °F 97% 30.34 in 10.0 mi South 12.7 mph - 0.00 in Rain Light Rain
3:53 AM 54.0 °F 52.0 °F 93% 30.34 in 7.0 mi South 10.4 mph - 0.01 in   Overcast
4:09 AM 53.6 °F 51.8 °F 94% 30.30 in 10.0 mi South 12.7 mph - 0.00 in Rain Light Rain
4:53 AM 54.0 °F 52.0 °F 93% 30.33 in 10.0 mi South 11.5 mph - 0.00 in   Overcast
5:53 AM 54.0 °F 52.0 °F 93% 30.33 in 10.0 mi South 8.1 mph - N/A   Overcast
6:06 AM 53.6 °F 51.8 °F 94% 30.31 in 10.0 mi South 8.1 mph - N/A   Overcast
6:53 AM 54.0 °F 52.0 °F 93% 30.32 in 10.0 mi South 6.9 mph - N/A   Overcast
7:53 AM 54.0 °F 51.1 °F 90% 30.32 in 10.0 mi SSW 6.9 mph - N/A   Overcast
8:53 AM 55.0 °F 52.0 °F 89% 30.32 in 10.0 mi South 6.9 mph - N/A   Overcast
9:53 AM 53.1 °F 51.1 °F 93% 30.32 in 10.0 mi SSE 6.9 mph - N/A   Overcast
10:13 AM 53.6 °F 51.8 °F 94% 30.30 in 10.0 mi South 5.8 mph - N/A   Overcast
10:53 AM 54.0 °F 52.0 °F 93% 30.32 in 10.0 mi SE 8.1 mph - N/A   Overcast
11:53 AM 55.0 °F 52.0 °F 89% 30.33 in 10.0 mi SSW 6.9 mph - N/A   Overcast
12:53 PM 55.0 °F 53.1 °F 93% 30.31 in 10.0 mi SSW 6.9 mph - N/A   Overcast
1:53 PM 57.2 °F 53.6 °F 88% 30.26 in 10.0 mi South 6.9 mph - N/A   Overcast
2:53 PM 57.9 °F 55.0 °F 90% 30.28 in 10.0 mi SSW 6.9 mph - N/A   Overcast
3:36 PM 57.2 °F 53.6 °F 88% 30.25 in 10.0 mi SW 13.8 mph - N/A   Mostly Cloudy
3:53 PM 57.9 °F 54.0 °F 87% 30.27 in 10.0 mi SW 9.2 mph - N/A   Mostly Cloudy
4:53 PM 57.0 °F 53.1 °F 87% 30.26 in 10.0 mi SSW 11.5 mph - N/A   Mostly Cloudy
5:35 PM 55.4 °F 53.6 °F 94% 30.22 in 10.0 mi SSW 10.4 mph - N/A   Mostly Cloudy
5:53 PM 55.0 °F 53.1 °F 93% 30.24 in 10.0 mi SSW 9.2 mph - N/A   Mostly Cloudy
6:33 PM 55.4 °F 53.6 °F 94% 30.23 in 10.0 mi SW 10.4 mph - N/A   Mostly Cloudy
6:53 PM 55.9 °F 53.1 °F 90% 30.27 in 10.0 mi SW 6.9 mph - N/A   Overcast
7:53 PM 55.0 °F 53.1 °F 93% 30.26 in 10.0 mi SSW 6.9 mph - N/A   Mostly Cloudy
8:53 PM 55.0 °F 53.1 °F 93% 30.26 in 10.0 mi SW 3.5 mph - N/A   Overcast
9:53 PM 55.0 °F 53.1 °F 93% 30.26 in 10.0 mi Calm Calm - N/A   Overcast
10:18 PM 55.4 °F 53.6 °F 94% 30.23 in 10.0 mi South 4.6 mph - N/A   Overcast
10:53 PM 55.9 °F 54.0 °F 93% 30.26 in 10.0 mi SSE 3.5 mph - N/A   Overcast
11:53 PM 55.0 °F 53.1 °F 93% 30.25 in 10.0 mi SSW 5.8 mph - N/A   Overcast